Columbia, SC

7:21 PM EDT on May 23, 2018 (GMT -0400)
Columbia Metro

Weather History for KCAE - March, 2014

Change the Weather History Date:

Tuesday, March 18, 2014

  Actual Average Record
Temperature  
Mean Temperature 41 °F 56 °F  
Max Temperature 45 °F 69 °F 88 °F (1963)
Min Temperature 36 °F 44 °F 25 °F (1967)
Degree Days  
Heating Degree Days 24 9  
Month to date heating degree days 255 207  
Since 1 July heating degree days 2339 2306  
Cooling Degree Days 0 1  
Month to date cooling degree days 0 6  
Year to date cooling degree days 7 10  
Moisture  
Dew Point 36 °F    
Average Humidity 81    
Maximum Humidity 85    
Minimum Humidity 76    
Precipitation  
Precipitation T in 0.12 in 2.60 in (1969)
Month to date precipitation 3.34 2.27  
Year to date precipitation 9.66 9.46  
Sea Level Pressure  
Sea Level Pressure 30.00 in    
Wind  
Wind Speed 8 mph (NNE)    
Max Wind Speed 16 mph    
Max Gust Speed 22 mph    
Visibility 9 miles    
Events Rain    
T = Trace of Precipitation, MM = Missing Value Source: NWS Daily Summary

Daily Weather History Graph

Daily Weather History Graph

Search for Another Location

Airport or City:

Astronomy

Mar. 18, 2014 Rise Set
Actual Time 7:30 AM EDT 7:34 PM EDT
Civil Twilight 7:05 AM EDT 7:59 PM EDT
Nautical Twilight 6:36 AM EDT 8:28 PM EDT
Astronomical Twilight 6:07 AM EDT 8:57 PM EDT
Moon 9:42 PM EDT (3/18) 8:25 AM EDT (3/18)
Length of Visible Light 12h 53m
Length of Day
12h 03m
Waning Gibbous, 96% of the Moon is Illuminated
Mar 18
Waning Gibbous
Mar 23
Last Quarter
Mar 30
New
Apr 7
First Quarter
Apr 15
Full

Hourly Weather History & Observations

Time (EDT) Temp. Windchill Dew Point Humidity Pressure Visibility Wind Dir Wind Speed Gust Speed Precip Events Conditions
12:04 AM 37.0 °F 30.4 °F 35.1 °F 93% 29.93 in 3.0 mi NE 9.2 mph - 0.01 in Rain Light Rain
12:53 AM 37.4 °F 32.1 °F 35.6 °F 93% 29.91 in 6.0 mi NE 6.9 mph - 0.01 in   Overcast
12:56 AM 37.0 °F 31.0 °F 35.1 °F 93% 29.92 in 6.0 mi NE 8.1 mph - 0.01 in Rain Light Rain
1:24 AM 37.0 °F 30.4 °F 34.0 °F 89% 29.92 in 10.0 mi NNE 9.2 mph - 0.00 in   Overcast
1:56 AM 37.0 °F 30.4 °F 34.0 °F 89% 29.92 in 10.0 mi NNE 9.2 mph - 0.00 in   Overcast
2:56 AM 37.0 °F 29.3 °F 33.1 °F 86% 29.89 in 10.0 mi NNE 11.5 mph - 0.00 in   Overcast
3:26 AM 37.0 °F 30.4 °F 34.0 °F 89% 29.88 in 10.0 mi NNE 9.2 mph - N/A   Overcast
3:56 AM 37.0 °F 29.8 °F 33.1 °F 86% 29.91 in 10.0 mi NE 10.4 mph - N/A   Overcast
4:56 AM 37.0 °F 31.0 °F 33.1 °F 86% 29.89 in 10.0 mi NE 8.1 mph - N/A   Overcast
5:56 AM 37.0 °F 29.3 °F 33.1 °F 86% 29.90 in 10.0 mi NE 11.5 mph - N/A   Overcast
6:56 AM 37.0 °F 31.0 °F 33.1 °F 86% 29.90 in 10.0 mi North 8.1 mph - N/A   Overcast
7:56 AM 37.0 °F 30.4 °F 33.1 °F 86% 29.92 in 10.0 mi NNE 9.2 mph - N/A   Overcast
8:56 AM 37.0 °F 30.4 °F 33.1 °F 86% 29.95 in 10.0 mi NNE 9.2 mph - N/A   Overcast
9:56 AM 37.9 °F 32.1 °F 33.1 °F 83% 29.99 in 10.0 mi NE 8.1 mph - N/A   Overcast
10:56 AM 39.9 °F 35.1 °F 34.0 °F 79% 30.03 in 9.0 mi NNE 6.9 mph - N/A   Overcast
11:20 AM 39.9 °F 34.5 °F 34.0 °F 79% 30.04 in 10.0 mi NNW 8.1 mph - N/A   Overcast
11:56 AM 41.0 °F 37.1 °F 35.1 °F 79% 30.06 in 10.0 mi North 5.8 mph - N/A   Overcast
12:56 PM 42.1 °F 38.4 °F 35.1 °F 76% 30.06 in 10.0 mi Variable 5.8 mph - N/A   Overcast
1:56 PM 43.0 °F 38.8 °F 36.0 °F 76% 30.07 in 10.0 mi North 6.9 mph - N/A   Overcast
2:56 PM 43.0 °F 36.4 °F 37.0 °F 80% 30.06 in 10.0 mi North 12.7 mph - N/A   Overcast
3:56 PM 45.0 °F 41.2 °F 37.9 °F 76% 30.06 in 10.0 mi Variable 6.9 mph - N/A   Overcast
4:56 PM 45.0 °F 41.2 °F 37.9 °F 76% 30.05 in 10.0 mi NNE 6.9 mph - N/A   Overcast
5:56 PM 45.0 °F 41.2 °F 37.9 °F 76% 30.05 in 10.0 mi NNE 6.9 mph - N/A   Overcast
6:56 PM 44.1 °F 39.5 °F 37.9 °F 79% 30.08 in 10.0 mi NNE 8.1 mph - N/A   Overcast
7:56 PM 44.1 °F 40.8 °F 39.0 °F 82% 30.09 in 8.0 mi North 5.8 mph - N/A   Overcast
8:56 PM 44.1 °F 42.5 °F 39.9 °F 85% 30.11 in 8.0 mi North 3.5 mph - N/A   Overcast
9:56 PM 44.1 °F 41.5 °F 39.9 °F 85% 30.14 in 10.0 mi NNE 4.6 mph - N/A   Overcast
10:56 PM 44.1 °F 40.8 °F 39.9 °F 85% 30.13 in 10.0 mi ENE 5.8 mph - N/A   Overcast
11:56 PM 44.1 °F 40.8 °F 39.0 °F 82% 30.14 in 10.0 mi NE 5.8 mph - N/A   Overcast